Location: Bathurst
(33.4193°S, 149.5775°E)
Time: 23:56:35
(UTC+10:00)

Tiangong 2 - Visible Passes

Search period start: 26 May 2018 00:00
Search period end: 05 June 2018 00:00
Orbit: 382 x 385 km, 42.8° (Epoch: 26 May)

Date Brightness Start Highest point End Pass type
(mag) Time Alt. Az. Time Alt. Az. Time Alt. Az.
26 May 4.0 05:15:00 10° N 05:17:05 16° NE 05:19:12 10° E visible
27 May 1.3 05:50:38 10° NW 05:53:45 69° NNE 05:56:57 10° ESE visible
28 May 3.0 04:54:35 30° ENE 04:54:35 30° ENE 04:56:56 10° ESE visible
29 May 1.1 05:30:30 56° WSW 05:30:50 60° SSW 05:34:00 10° SE visible
30 May 4.4 04:33:58 12° ESE 04:33:58 12° ESE 04:34:11 10° ESE visible
30 May 2.5 06:06:11 16° WSW 06:07:55 23° SSW 06:10:37 10° SE visible
31 May 3.1 05:09:29 21° SSE 05:09:29 21° SSE 05:10:56 10° SE visible
01 Jun 2.9 05:44:52 18° SSW 05:45:10 18° S 05:47:31 10° SE visible
02 Jun 3.3 06:20:33 10° SW 06:22:33 15° S 06:24:34 10° SE visible
03 Jun 3.5 05:23:10 15° SSE 05:23:10 15° SSE 05:24:30 10° SE visible
04 Jun 3.3 05:58:20 13° SSW 05:59:48 16° S 06:01:56 10° SE visible
